Flag for Bermuda Weather past 2 weeks in Hamilton, Bermuda

Now
77 °F

Passing clouds.


Feels Like: 78 °F
Forecast: 78 / 82 °F
Wind: 6 mph from East

Location: Bermuda

Current Time: Sep 20, 2014 at 3:48:52 AM

Latest Report: Sep 20, 2014 at 2:55 AM


Visibility: N/A

Pressure: 30.09 "Hg

Humidity: 83%

Dew point: 72 °F

Location of HamiltonLocation

Historic Weather in Hamilton — Graph

°F

Hamilton temperature yesterday

Maximum temperature yesterday: 82 °F (at 2:55 PM)
Minimum temperature yesterday: 73 °F (at 7:55 AM)
Average temperature yesterday: 78 °F

Past Weeks' High & Low Weather Summary

 TemperatureHumidityPressure
High86 °F (Sep 5, 1:55 PM)100% (Sep 12, 6:55 AM)30.18 "Hg (Sep 12, 6:55 AM)
Low73 °F (Sep 18, 2:55 PM)62% (Sep 7, 3:55 PM)29.86 "Hg (Sep 17, 2:55 AM)
Average81 °F80%30.06 "Hg
* Reported Sep 5 1:55 AM — Sep 20 1:55 AM, Hamilton, Weather by CustomWeather, © 2014

Note: Actual official high and low records may vary slightly from our data, if they occured in-between our weather recording intervals... More about our weather records

Advertising

Hamilton weather history for previous 24 hours

 ConditionsComfort  
Time TempWeatherWind HumidityBarometerVisibility
1:55 AM
Sep 20
77 °FPassing clouds.5 mph83%30.12 "HgN/A
12:55 AM77 °FPartly cloudy.7 mph89%30.12 "HgN/A
11:55 PM
Sep 19
79 °FPartly cloudy.5 mph79%30.12 "HgN/A
10:55 PM79 °FPartly cloudy.5 mph84%30.12 "HgN/A
9:55 PM79 °FPartly cloudy.3 mph79%30.09 "HgN/A
8:55 PM79 °FPartly cloudy.3 mph79%30.09 "HgN/A
7:55 PM79 °FBroken clouds.5 mph79%30.07 "HgN/A
6:55 PM79 °FBroken clouds.5 mph84%30.07 "HgN/A
5:55 PM81 °FPartly sunny.8 mph74%30.04 "HgN/A
4:55 PM82 °FPartly sunny.7 mph74%30.04 "HgN/A
3:55 PM82 °FPartly sunny.5 mph74%30.04 "HgN/A
2:55 PM82 °FBroken clouds.9 mph74%30.04 "HgN/A
1:55 PM81 °FBroken clouds.6 mph79%30.04 "HgN/A
12:55 PM81 °FPartly sunny.7 mph79%30.04 "HgN/A
11:55 AM81 °FPartly sunny.10 mph79%30.04 "HgN/A
10:55 AM77 °FPartly sunny.5 mph83%30.04 "HgN/A
9:55 AM77 °FSprinkles. Broken clouds.3 mph89%30.01 "HgN/A
8:55 AM73 °FLight rain. Mostly cloudy.6 mph100%30.01 "HgN/A
7:55 AM73 °FSprinkles. Overcast.5 mph94%29.98 "Hg5 mi
6:55 AM75 °FLight rain. Mostly cloudy.13 mph94%29.95 "HgN/A
5:55 AM75 °FLight rain. Overcast.17 mph100%29.95 "HgN/A
4:55 AM75 °FLight rain. Overcast.17 mph89%29.92 "HgN/A
3:55 AM75 °FScattered showers. Overcast.17 mph89%29.92 "HgN/A
Weather by CustomWeather, © 2014

See weather overviewHow to use our weather pages